www.pogodaiklimat.ru

Погода и климат >> Архив погоды >> Австралия >> Coober Pedy Airport


ПОГОДА в Coober Pedy Airport

  • Прогноз погоды в Coober Pedy Airport
  • Монитор погоды в Coober Pedy Airport
  • Климат города

АРХИВ ПОГОДЫ в Coober Pedy Airport

Время (UTC), дата Ветер
(напр.,м/с)
 
Видим.   Явления Облачность Т
(С)
Тd
(С)
f
(%)
Тe
(С)
Тes
(С)
Комфортность P
(гПа)
Po
(гПа)
Тmin
(С)
Tmax
(С)
R
(мм)
R24
(мм)
S
(см)
23 17.05 Ю 5 н/о н/о +8.3 +2.8 68 +5 +5 1031.1 1004.1
22 17.05 Ю 4 н/о н/о +5.3 +0.9 73 +2 +2 1030.5 1003.5
00 18.05 ЮВ 6 н/о н/о +11.2 +4.0 61 +9 +9 1031.6 1004.6
01 18.05 ЮВ 7 н/о н/о +13.7 +4.6 54 +12 +12 1031.8 1004.8
02 18.05 ЮВ 6 н/о н/о +14.9 +4.0 48 +13 +13 1031.1 1004.1
03 18.05 ЮВ 6 н/о н/о +16.0 +3.8 44 +15 +15 1029.8 1002.9
05 18.05 Ю 5 н/о н/о +17.6 +2.8 37 +17 +17 1027.9 1001.0
04 18.05 ЮВ 5 н/о н/о +17.1 +3.4 40 +16 +16 1028.9 1002.0
06 18.05 Ю 6 н/о н/о +18.2 +2.9 36 +18 +18 1027.4 1000.5
07 18.05 Ю 6 н/о н/о +17.8 +2.9 37 +17 +17 1027.2 1000.3
08 18.05 Ю 6 н/о н/о +16.8 +3.1 40 +16 +16 1027.2 1000.3
09 18.05 Ю 5 н/о н/о +15.4 +3.2 44 +14 +14 1027.5 1000.6
11 18.05 Ю 4 н/о н/о +11.8 +2.3 52 +10 +10 1028.2 1001.3
10 18.05 Ю 4 н/о н/о +13.7 +2.9 48 +12 +12 1027.9 1001.0
12 18.05 ЮВ 5 н/о н/о +11.8 +3.3 56 +10 +10 1028.0 1001.1
13 18.05 ЮВ 4 н/о н/о +10.7 +3.5 61 +9 +9 1028.1 1001.2
14 18.05 ЮВ 3 н/о н/о +9.4 +2.9 64 +8 +8 1028.1 1001.2
15 18.05 ЮВ 1 н/о н/о +8.0 +2.5 68 +7 +7 1027.7 1000.8
17 18.05 ЮЗ 3 н/о н/о +6.8 +1.5 69 +4 +4 1027.4 1000.5
16 18.05 Ю 3 н/о н/о +7.2 +1.1 65 +5 +5 1027.3 1000.4
18 18.05 ЮЗ 4 н/о н/о +6.3 +1.6 72 +3 +3 1027.3 1000.4
19 18.05 Ю 4 н/о н/о +7.1 +3.0 75 +4 +4 1027.3 1000.4
20 18.05 Ю 4 н/о н/о +7.6 +3.8 77 +4 +4 1027.5 1000.6
21 18.05 Ю 4 н/о н/о +7.3 +3.9 79 +4 +4 1027.7 1000.8
23 18.05 Ю 6 н/о н/о +11.2 +7.7 79 +8 +8 1028.5 1001.6
22 18.05 Ю 4 н/о н/о +8.5 +5.1 79 +6 +6 1028.1 1001.2
00 19.05 ЮВ 6 н/о н/о +13.9 +8.9 72 +12 +12 1028.8 1001.9
01 19.05 ЮВ 6 н/о н/о +16.6 +9.3 62 +16 +16 1028.9 1002.0
02 19.05 ЮВ 5 н/о н/о +17.4 +8.8 57 +17 +17 1028.3 1001.4
03 19.05 ЮВ 5 н/о н/о +18.1 +8.1 52 +18 +18 1027.5 1000.6
05 19.05 Ю 5 н/о н/о +19.3 +7.1 45 +20 +20 1025.9 999.1
04 19.05 ЮВ 3 н/о н/о +19.5 +7.9 47 +21 +21 комфорт 1026.6 999.7
06 19.05 Ю 3 н/о н/о +19.5 +6.9 44 +20 +20 1025.5 998.7
07 19.05 Ю 6 н/о н/о +19.4 +6.8 44 +20 +20 1025.6 998.8
08 19.05 Ю 6 н/о н/о +18.4 +6.6 46 +18 +18 1025.8 999.0
09 19.05 Ю 4 н/о н/о +16.8 +6.0 49 +16 +16 1026.2 999.4
11 19.05 Ю 4 н/о н/о +13.9 +5.5 57 +13 +13 1027.1 1000.2
10 19.05 Ю 4 н/о н/о +15.0 +5.8 54 +14 +14 1026.9 1000.0
12 19.05 Ю 4 н/о н/о +13.1 +5.5 60 +12 +12 1027.3 1000.4
13 19.05 Ю 4 н/о н/о +12.2 +5.4 63 +10 +10 1027.3 1000.4
14 19.05 Ю 4 н/о н/о +11.6 +5.3 65 +10 +10 1027.2 1000.3
15 19.05 ЮВ 4 н/о н/о +11.3 +5.4 67 +9 +9 1026.9 1000.0
17 19.05 Ю 4 н/о н/о +9.7 +5.1 73 +7 +7 1026.7 999.8
16 19.05 ЮВ 4 н/о н/о +11.1 +4.8 65 +9 +9 1026.7 999.8
18 19.05 Ю 4 н/о н/о +9.5 +5.1 74 +7 +7 1026.8 999.9
19 19.05 Ю 5 н/о н/о +8.4 +4.2 75 +5 +5 1027.0 1000.1
20 19.05 Ю 5 н/о н/о +7.8 +4.4 79 +4 +4 1027.2 1000.3
21 19.05 Ю 4 н/о н/о +8.0 +4.4 78 +5 +5 1027.7 1000.8
23 19.05 Ю 4 н/о н/о +11.7 +7.0 73 +10 +10 1029.1 1002.2
22 19.05 Ю 4 н/о н/о +7.4 +4.2 80 +4 +4 1028.5 1001.6
00 20.05 ЮВ 5 н/о н/о +15.2 +7.7 61 +14 +14 1029.5 1002.6
01 20.05 ЮВ 4 н/о н/о +17.3 +6.8 50 +17 +17 1029.5 1002.6
02 20.05 ЮВ 4 н/о н/о +19.1 +4.1 37 +19 +19 1029.0 1002.1
03 20.05 В 3 н/о н/о +19.4 +3.2 34 +20 +20 1028.1 1001.2
05 20.05 Ю 7 н/о н/о +20.4 +3.2 32 +21 +21 комфорт 1026.9 1000.0
04 20.05 Ю 5 н/о н/о +19.4 +2.3 32 +20 +20 1027.5 1000.6
06 20.05 ЮЗ 6 н/о н/о +19.8 +2.6 32 +20 +20 1026.8 999.9
07 20.05 Ю 6 н/о н/о +19.2 +2.1 32 +19 +19 1027.1 1000.2
08 20.05 Ю 5 н/о н/о +18.4 +2.7 35 +18 +18 1027.3 1000.4
09 20.05 Ю 4 н/о н/о +16.3 +2.0 38 +16 +16 1027.7 1000.8
11 20.05 Ю 4 н/о н/о +15.2 +2.7 43 +14 +14 1029.0 1002.1
10 20.05 Ю 4 н/о н/о +14.6 +1.5 41 +14 +14 1028.5 1001.6
12 20.05 ЮВ 4 н/о н/о +14.7 +1.6 41 +14 +14 1029.3 1002.4
13 20.05 ЮВ 4 н/о н/о +12.9 +1.0 44 +12 +12 1029.4 1002.5
14 20.05 ЮВ 4 н/о н/о +11.8 +0.9 47 +10 +10 1029.5 1002.6
15 20.05 Ю 4 н/о н/о +11.9 +1.3 48 +10 +10 1029.3 1002.4
17 20.05 ЮВ 4 н/о н/о +14.0 +2.9 47 +13 +13 1028.9 1002.0
16 20.05 В 4 н/о н/о +13.5 +2.1 46 +12 +12 1029.3 1002.4
18 20.05 ЮВ 4 н/о н/о +12.0 +2.5 52 +10 +10 1028.7 1001.8
19 20.05 ЮВ 4 н/о н/о +10.7 +2.5 57 +9 +9 1028.7 1001.8
20 20.05 ЮВ 5 н/о н/о +10.1 +2.9 61 +7 +7 1029.4 1002.5
21 20.05 ЮВ 5 н/о н/о +9.4 +2.9 64 +6 +6 1029.9 1003.0
23 20.05 ЮВ 4 н/о н/о +11.6 +3.9 59 +10 +10 1031.4 1004.4
22 20.05 ЮВ 4 н/о н/о +9.2 +2.8 64 +6 +6 1030.7 1003.7
00 21.05 ЮВ 5 н/о н/о +14.1 +4.9 54 +13 +13 1031.9 1004.9
01 21.05 ЮВ 6 н/о н/о +17.1 +6.0 48 +16 +16 1031.9 1004.9
02 21.05 ЮВ 5 н/о н/о +18.5 +5.0 41 +18 +18 1031.6 1004.6
03 21.05 ЮВ 5 н/о н/о +19.8 +3.9 35 +20 +20 1030.8 1003.8
05 21.05 ЮВ 4 н/о н/о +20.5 +2.8 31 +21 +21 комфорт 1029.2 1002.3
04 21.05 ЮВ 6 н/о н/о +20.0 +2.8 32 +20 +20 1029.8 1002.9
06 21.05 Ю 6 н/о н/о +20.5 +2.3 30 +21 +21 комфорт 1029.1 1002.2
07 21.05 ЮВ 5 н/о н/о +20.4 +2.7 31 +21 +21 комфорт 1029.1 1002.2
08 21.05 ЮВ 6 н/о н/о +19.4 +2.3 32 +19 +19 1029.5 1002.6
09 21.05 ЮВ 4 н/о н/о +17.5 +2.3 36 +17 +17 1030.1 1003.2
11 21.05 ЮВ 4 н/о н/о +14.4 +2.3 44 +13 +13 1030.9 1003.9
10 21.05 ЮВ 4 н/о н/о +15.3 +1.8 40 +15 +15 1030.8 1003.8
12 21.05 ЮВ 4 н/о н/о +13.1 +2.4 48 +12 +12 1031.2 1004.2
13 21.05 ЮВ 3 н/о н/о +12.1 +2.3 51 +11 +11 1031.1 1004.1
14 21.05 ЮВ 5 н/о н/о +12.3 +2.7 52 +10 +10 1031.0 1004.0
15 21.05 ЮВ 4 н/о н/о +10.6 +2.7 58 +9 +9 1030.8 1003.8
17 21.05 ЮВ 5 н/о н/о +10.6 +3.6 62 +8 +8 1030.6 1003.6
16 21.05 ЮВ 5 н/о н/о +11.0 +3.3 59 +9 +9 1030.6 1003.6
18 21.05 ЮВ 4 н/о н/о +10.0 +4.2 67 +8 +8 1030.4 1003.4
19 21.05 ЮВ 5 н/о н/о +9.9 +4.7 70 +7 +7 1030.5 1003.5
20 21.05 ЮВ 5 н/о н/о +10.1 +4.9 70 +7 +7 1030.6 1003.6
21 21.05 Ю 4 н/о н/о +7.8 +3.7 75 +5 +5 1031.2 1004.2
23 21.05 ЮВ 5 н/о н/о +10.3 +5.7 73 +7 +7 1031.8 1004.8
22 21.05 ЮВ 4 н/о н/о +7.7 +3.9 77 +4 +4 1031.5 1004.5
00 22.05 ЮВ 7 н/о н/о +14.4 +7.9 65 +12 +12 1031.9 1004.9
01 22.05 В 7 н/о н/о +16.2 +7.7 57 +15 +15 1031.9 1004.9
02 22.05 В 6 н/о н/о +18.2 +7.3 49 +18 +18 1031.7 1004.7
03 22.05 В 5 н/о н/о +19.2 +6.3 43 +19 +19 1030.8 1003.8
05 22.05 Ю 5 н/о н/о +20.4 +4.4 35 +21 +21 комфорт 1028.4 1001.5
04 22.05 ЮВ 4 н/о н/о +19.9 +5.2 38 +21 +21 комфорт 1029.5 1002.6
06 22.05 ЮВ 5 н/о н/о +21.4 +4.5 33 +22 +22 комфорт 1028.0 1001.1
07 22.05 Ю 4 н/о н/о +21.0 +3.7 32 +22 +22 комфорт 1027.8 1000.9
08 22.05 ЮВ 4 н/о н/о +20.0 +2.8 32 +20 +20 1027.9 1001.0
09 22.05 Ю 3 н/о н/о +17.2 +2.8 38 +17 +17 1028.4 1001.5
11 22.05 ЮВ 4 н/о н/о +14.7 +2.6 44 +14 +14 1029.4 1002.5
10 22.05 Ю 4 н/о н/о +15.2 +2.4 42 +14 +14 1029.0 1002.1
12 22.05 ЮВ 5 н/о н/о +14.0 +2.6 46 +13 +13 1029.2 1002.3
13 22.05 ЮВ 5 н/о н/о +12.6 +3.0 52 +11 +11 1029.2 1002.3
14 22.05 ЮВ 4 н/о н/о +11.1 +2.9 57 +9 +9 1029.0 1002.1
15 22.05 ЮВ 4 н/о н/о +10.5 +3.5 62 +8 +8 1028.7 1001.8
17 22.05 ЮВ 4 н/о н/о +9.0 +3.8 70 +6 +6 1028.2 1001.3
16 22.05 ЮВ 4 н/о н/о +9.9 +3.9 66 +8 +8 1028.5 1001.6
18 22.05 ЮВ 5 н/о н/о +9.3 +4.3 71 +6 +6 1027.9 1001.0
19 22.05 ЮВ 4 н/о н/о +7.9 +3.8 75 +5 +5 1028.1 1001.2
20 22.05 ЮВ 5 н/о н/о +7.6 +4.0 78 +4 +4 1028.2 1001.3
21 22.05 ЮВ 4 н/о н/о +7.4 +4.2 80 +4 +4 1028.6 1001.7
23 22.05 ЮВ 5 н/о н/о +10.2 +5.8 74 +7 +7 1029.5 1002.6
22 22.05 ЮВ 5 н/о н/о +7.3 +4.6 83 +4 +4 1029.1 1002.2
00 23.05 В 5 н/о н/о +13.3 +6.4 63 +11 +11 1029.5 1002.6
01 23.05 В 5 н/о н/о +14.4 +6.3 58 +13 +13 1029.6 1002.7
02 23.05 В 5 н/о н/о +16.7 +6.2 50 +16 +16 1028.8 1001.9
03 23.05 В 5 н/о н/о +17.6 +5.9 46 +17 +17 1027.5 1000.6
05 23.05 СВ 3 н/о н/о +19.3 +4.3 37 +20 +20 1025.6 998.8
04 23.05 В 5 н/о н/о +19.1 +5.6 41 +19 +19 1026.3 999.5
06 23.05 В 3 н/о н/о +19.8 +3.9 35 +21 +21 комфорт 1025.2 998.4
07 23.05 СВ 4 н/о н/о +19.5 +4.0 36 +20 +20 1025.3 998.5
08 23.05 В 4 н/о н/о +18.2 +4.4 40 +18 +18 1025.5 998.7
09 23.05 СВ 4 н/о н/о +16.2 +4.3 45 +16 +16 1025.7 998.9
11 23.05 СВ 4 н/о н/о +14.0 +4.6 53 +13 +13 1026.3 999.5
10 23.05 СВ 3 н/о н/о +14.6 +4.0 49 +14 +14 1026.0 999.2
12 23.05 СВ 4 н/о н/о +12.9 +4.3 56 +12 +12 1026.2 999.4
13 23.05 В 2 н/о н/о +12.3 +4.5 59 +12 +12 1026.0 999.2
14 23.05 В 2 н/о н/о +11.4 +4.4 62 +10 +10 1025.4 998.6
15 23.05 СВ 2 н/о н/о +10.8 +4.3 64 +10 +10 1025.0 998.2
17 23.05 ЮВ 4 н/о н/о +10.0 +3.7 65 +8 +8 1024.4 997.6
16 23.05 ЮВ 5 н/о н/о +9.9 +3.6 65 +7 +7 1024.8 998.0
18 23.05 ЮВ 4 н/о н/о +8.8 +3.0 67 +6 +6 1024.0 997.2
19 23.05 ЮВ 4 н/о н/о +7.5 +2.8 72 +4 +4 1024.1 997.3
20 23.05 ЮВ 5 н/о н/о +7.4 +3.6 77 +4 +4 1024.4 997.6
21 23.05 В 4 н/о н/о +7.6 +4.0 78 +4 +4 1025.1 998.3
23 23.05 ЮВ 3 н/о н/о +10.8 +5.3 69 +9 +9 1026.2 999.4
22 23.05 ЮВ 4 н/о н/о +7.6 +4.4 80 +4 +4 1025.5 998.7
00 24.05 ЮВ 3 н/о н/о +14.1 +6.0 58 +13 +13 1026.5 999.6
01 24.05 СВ 5 н/о н/о +16.9 +6.4 50 +16 +16 1026.1 999.3
02 24.05 В 6 н/о н/о +18.1 +7.2 49 +18 +18 1025.4 998.6
03 24.05 В 4 н/о н/о +18.8 +6.9 46 +19 +19 1024.1 997.3
05 24.05 В 5 н/о н/о +20.0 +6.4 41 +21 +21 комфорт 1022.2 995.5
04 24.05 СВ 5 н/о н/о +19.5 +6.6 43 +20 +20 1022.9 996.1
06 24.05 В 4 н/о н/о +20.4 +6.4 40 +21 +21 комфорт 1021.7 995.0
07 24.05 В 5 н/о н/о +19.7 +6.1 41 +20 +20 1021.6 994.9
08 24.05 В 4 н/о н/о +18.8 +5.6 42 +19 +19 1021.8 995.1
09 24.05 В 3 н/о н/о +16.2 +5.2 48 +16 +16 1022.4 995.7
11 24.05 В 4 н/о н/о +13.6 +5.0 56 +12 +12 1023.2 996.4
10 24.05 В 4 н/о н/о +15.3 +5.8 53 +15 +15 1023.0 996.2
12 24.05 В 5 н/о н/о +13.7 +6.1 60 +12 +12 1023.4 996.6
13 24.05 В 5 н/о н/о +13.5 +6.1 61 +12 +12 1023.4 996.6
14 24.05 В 5 н/о н/о +12.3 +5.7 64 +10 +10 1023.0 996.2
15 24.05 В 4 н/о н/о +11.0 +5.1 67 +9 +9 1022.5 995.8
17 24.05 В 4 н/о н/о +11.2 +4.9 65 +9 +9 1021.9 995.2
16 24.05 В 5 н/о н/о +11.7 +5.1 64 +9 +9 1022.2 995.5
18 24.05 В 4 н/о н/о +10.9 +5.0 67 +9 +9 1022.0 995.3
19 24.05 В 5 н/о н/о +10.7 +5.0 68 +8 +8 1021.9 995.2
20 24.05 В 6 н/о н/о +10.4 +5.2 70 +7 +7 1021.6 994.9
21 24.05 В 8 н/о н/о +10.8 +6.2 73 +7 +7 1021.6 994.9
22 24.05 В 6 н/о н/о +10.3 +5.9 74 +7 +7 1022.2 995.5

 

Местоположение метеостанции Coober Pedy Airport (Южная Австралия, Австралия): широта -29.03 долгота 134.71 высота над уровнем моря 226 м.

В архиве по умолчанию представлена погода в Coober Pedy Airport за последнюю неделю. Архивные данные за месяц целиком и за предыдущие месяцы, начиная с января 2011 года, Вы можете получить, выбрав интересующий диапазон дат из раскрывающегося списка и нажав кнопку "Ввод!".


*Определитесь, кто Вы:
робот инопланетянин человек

Внимание! Время в таблицах - всемирное. Для получения местного времени необходимо прибавить поправку, которая в Coober Pedy Airport равна 9.5 ч.

Смотрите также архив погоды в соседних городах и на ближайших метеорологических станциях:

Погода в Oodnadatta Airport (Южная Австралия, Австралия) (180 км)
Погода в Tarcoola Aero (Южная Австралия, Австралия) (188 км)
Погода в Olympic Dam Aerodrome (Южная Австралия, Австралия) (264 км)
Погода в Woomera Aerodrome (Южная Австралия, Австралия) (311 км)
Погода в Marree Aero (Южная Австралия, Австралия) (332 км)
Погода в Ceduna Amo (Южная Австралия, Австралия) (358 км)
Погода в Pukatja (Южная Австралия, Австралия) (395 км)
Погода в Leigh Creek Airport (Южная Австралия, Австралия) (398 км)
Погода в Minnipa Pirsa (Южная Австралия, Австралия) (427 км)
Погода в Wudinna Aero (Южная Австралия, Австралия) (453 км)

Пояснения к столбцам:

Ветер - указаны скорость ветра в м/с - средняя за 10 мин, порывы в срок и между сроками (в фигурных скобках) и направление, откуда дует ветер: С - северный, СВ - северо-восточный, В - восточный, ЮВ - юго-восточный, Ю - южный, ЮЗ - юго-западный, З - западный, СЗ - северо-западный.
Видимость - горизонтальная дальность видимости в метрах или километрах. При видимости от 1 до 10 км при отсутствии осадков обычно наблюдается дымка, при ухудшении видимости до 1 км и менее - туман. В сухую погоду видимость может ухудшаться дымом, пылью или мглою.
Явления - указаны атмосферные явления, наблюдавшиеся в срок или в последний час перед сроком; фигурными скобками обозначены явления, наблюдавшиеся между сроками (за 1-3 часа до срока); квадратными скобками обозначены град или гололедные отложения с указанием их диаметра в мм.
Облачность - указаны через наклонную черту общая и нижняя облачность в баллах и высота нижней границы облаков в метрах; квадратными скобками обозначены формы облаков: Ci - перистые, Cs - перисто-слоистые, Cc - перисто-кучевые, Ac - высококучевые, As - высокослоистые, Sc - слоисто-кучевые, Ns - слоисто-дождевые, Cu - кучевые, Cb - кучево-дождевые. Подробнее классификацию облаков см. в Атласе облаков (PDF).
T - Температура воздуха - температура, измеренная на высоте 2 м над землей.
Td - Температура точки росы - температура, при понижении до которой содержащийся в воздухе водяной пар достигнет насыщения.
f - Относительная влажность воздуха - влажноcть воздуха, измеренная на высоте 2 м над землей.
Te - Эффективная температура - температура, которую ощущает одетый по сезону человек в тени. Характеристика душности погоды. При расчете учитывается влияние влажности воздуха и скорости ветра на теплоощущения человека.
Tes - Эффективная температура на солнце - температура, которую ощущает человек, с поправкой на солнечный нагрев. Характеристика знойности погоды. Зависит от высоты солнца над горизонтом, облачности и скорости ветра. Ночью, в пасмурную погоду, а также при ветре 12 м/с и более поправка равна нулю.
P - Атмосферное давление - приведенное к уровню моря атмосферное давление.
Po - Атмосферное давление - измеренное на уровне метеостанции атмосферное давление.
Tmin - Минимальная температура - минимум температуры воздуха на высоте 2 м над землей.
Tmax - Максимальная температура - максимум температуры воздуха на высоте 2 м над землей.
R - Количество осадков - Количество выпавших осадков за период времени, мм. При наведении курсора мыши на число - период времени, за который выпало указанное количество осадков.
R24 - Количество осадков - Количество выпавших осадков за 24 часа, мм.
S - Снежный покров - Высота снежного покрова, см. При наведении курсора мыши на число - состояние снежного покрова и степень покрытия местности в баллах.